• Join FlightAware (Why Join?)
  • Login
  • US Flag GB Flag 
08:43 EDT


 

Airport Tracker/Info


-or-


 

Live Flight TrackerFlight Track Log ✈ UAL4431 ✈ 16-Apr-2013 ✈ KCLE - KMSN

Flight Track Log - Related Links

Times and Time Zones

All times are in EDT time to prevent confusion due to time zone crossing. See the UAL4431 flight status page for this flight to view local times or setup timezone preferences in your user account.

Time Position Orientation Groundspeed Altitude Reporting Facility
EDT Latitude Longitude Course Direction KTS MPH feet Rate Location/Type
16:54 41.4194 -81.8375 15° North 168 193 1,800  Level Cleveland Center
16:55 41.4342 -81.8322 15° North 170 196 2,500 1,800 Climbing Cleveland Center
16:56 41.4839 -81.8442 350° North 208 239 4,200 1,860 Climbing Cleveland Center
16:56 41.4878 -81.8692 282° West 188 216 5,100 2,220 Climbing Cleveland Center
16:57 41.4853 -81.9192 266° West 198 228 6,500 2,280 Climbing Cleveland Center
16:57 41.4828 -81.9411 261° West 202 232 7,400 2,400 Climbing Cleveland Center
16:58 41.4781 -81.9967 264° West 210 242 9,000 2,400 Climbing Cleveland Center
16:58 41.4736 -82.0186 255° West 217 250 9,800 1,500 Climbing Cleveland Center
16:59 41.4453 -82.1011 245° Southwest 241 277 11,000 1,320 Climbing Cleveland Center
17:00 41.4192 -82.1836 247° West 263 303 12,500 1,620 Climbing Cleveland Center
17:01 41.3867 -82.2797 246° West 279 321 14,300 1,680 Climbing Cleveland Center
17:02 41.3828 -82.3875 267° West 287 330 15,900 1,500 Climbing Cleveland Center
17:03 41.4333 -82.4858 304° West 295 339 17,400 1,380 Climbing Cleveland Center
17:04 41.4858 -82.5844 305° West 320 368 18,700 1,320 Climbing Cleveland Center
17:05 41.5361 -82.6858 304° West 332 382 20,100 1,440 Climbing Cleveland Center
17:06 41.5886 -82.7875 305° West 332 382 21,600 1,500 Climbing Cleveland Center
17:07 41.6447 -82.9006 304° West 337 388 23,100 1,500 Climbing Cleveland Center
17:08 41.6947 -83.0025 303° West 337 388 24,600 1,500 Climbing Cleveland Center
17:09 41.7467 -83.1047 304° West 337 388 26,100 1,380 Climbing Cleveland Center
17:10 41.7964 -83.2069 303° West 337 388 27,400 1,200 Climbing Cleveland Center
17:11 41.8483 -83.3122 304° West 337 388 28,500 1,080 Climbing Cleveland Center
17:12 41.9019 -83.4150 305° West 337 388 29,600 1,140 Climbing Cleveland Center
17:13 41.9556 -83.5206 304° West 342 394 30,800 1,080 Climbing Cleveland Center
17:14 41.9969 -83.6175 300° West 337 388 31,800 600 Climbing Cleveland Center
17:15 42.0544 -83.7294 305° West 343 395 32,000 60 Climbing Cleveland Center
17:16 42.1114 -83.8497 303° West 370 426 32,000  Level Cleveland Center
17:17 42.1725 -83.9706 304° West 382 440 32,000  Level Cleveland Center
17:18 42.2336 -84.0944 304° West 393 452 32,000  Level Cleveland Center
17:19 42.2942 -84.2214 303° West 399 459 32,000 300 Level Cleveland Center
17:20 42.3569 -84.3458 304° West 404 465 32,600 900 Climbing Cleveland Center
17:21 42.4131 -84.4731 301° West 404 465 33,800 660 Climbing Cleveland Center
17:22 42.4419 -84.6042 287° West 383 441 34,000 60 Climbing Cleveland Center
17:23 42.4686 -84.7236 287° West 371 427 34,000 540 Level Chicago Center
17:24 42.4953 -84.8594 285° West 373 429 35,100 960 Climbing Chicago Center
17:25 42.5203 -84.9883 285° West 358 412 36,000 420 Climbing Chicago Center
17:26 42.5453 -85.1200 284° West 360 414 36,000  Level Chicago Center
17:27 42.5722 -85.2508 286° West 362 417 36,000  Level Chicago Center
17:28 42.6022 -85.4108 284° West 364 419 36,000  Level Chicago Center
17:29 42.6250 -85.5436 283° West 362 417 36,000  Level Chicago Center
17:30 42.6444 -85.6775 281° West 361 415 36,000  Level Chicago Center
17:31 42.6653 -85.8111 282° West 361 415 36,000  Level Chicago Center
17:32 42.6856 -85.9453 282° West 361 415 36,000  Level Chicago Center
17:33 42.7061 -86.0808 282° West 363 418 36,000  Level Chicago Center
17:34 42.7267 -86.2178 282° West 366 421 36,000  Level Chicago Center
17:35 42.7511 -86.3808 282° West 364 419 36,000 -300 Level Chicago Center
17:36 42.7708 -86.5169 281° West 365 420 35,500 -1,140 Descending Chicago Center
17:37 42.7906 -86.6478 282° West 353 406 33,700 -1,560 Descending Chicago Center
17:39 42.8086 -86.7803 281° West 353 406 32,300 -840 Descending Chicago Center
17:40 42.8278 -86.9169 281° West 366 421 32,000 -180 Descending Chicago Center
17:41 42.8469 -87.0556 281° West 370 426 32,000 -360 Level Chicago Center
17:42 42.8722 -87.2294 281° West 386 444 31,300 -840 Descending Chicago Center
17:43 42.8911 -87.3706 280° West 382 440 30,300 -1,020 Descending Chicago Center
17:44 42.9117 -87.5200 281° West 385 443 29,200 -1,200 Descending Chicago Center
17:45 42.9581 -87.6547 295° West 395 455 27,800 -1,500 Descending Chicago Center
17:46 43.0067 -87.7864 297° West 390 449 26,200 -1,560 Descending Chicago Center
17:47 43.0222 -87.9272 279° West 375 432 24,600 -1,680 Descending Chicago Center
17:48 43.0367 -88.0903 277° West 370 426 22,800 -1,680 Descending Chicago Center
17:49 43.0494 -88.2281 277° West 366 421 21,200 -1,560 Descending Chicago Center
17:50 43.0617 -88.3597 277° West 351 404 19,600 -1,680 Descending Chicago Center
17:51 43.0731 -88.4894 277° West 344 396 17,800 -1,920 Descending Chicago Center
17:52 43.0839 -88.6150 277° West 333 383 15,700 -1,920 Descending Chicago Center
17:53 43.0944 -88.7378 277° West 325 374 13,900 -1,800 Descending Chicago Center
17:54 43.1042 -88.8553 277° West 311 358 12,000 -1,800 Descending Chicago Center
17:55 43.0794 -88.9697 254° West 274 315 10,200 -1,500 Descending Chicago Center
17:56 43.0533 -89.0561 248° West 248 285 8,900 -1,380 Descending Chicago Center
17:58 43.1011 -89.2109 270° West  Level Estimated
17:58 42.9950 -89.2308 270° West 254 292 6,000  Level Chicago Center
17:59 42.9667 -89.3158 246° West 251 289 4,900 -1,260 Descending Chicago Center
18:00 43.0211 -89.3475 337° Northwest 222 255 3,400 -1,260 Descending Chicago Center
18:01 43.0669 -89.3458 North 189 217 2,300 -1,020 Descending Chicago Center
18:02 43.1008 -89.3450 North 151 174 1,400 -540 Descending Chicago Center
18:03 43.1400 -89.3439 North 143 165 1,200 -240 Descending Chicago Center